Flag for Germany Weather past 2 weeks in Bocholt, North Rhine-Westphalia, Germany

Now
43 °F

Passing clouds.


Feels Like: 40 °F
Forecast: 32 / 46 °F
Wind: 5 mph from Northwest

Location: Niederrhein

Current Time: Feb 27, 2015 at 7:03:51 PM

Latest Report: Feb 27, 2015 at 6:20 PM


Visibility: N/A

Pressure: 30.09 "Hg

Humidity: 76%

Dew point: 36 °F

Location of BocholtLocation

Historic Weather in Bocholt — Graph

°F

Bocholt temperature yesterday

Maximum temperature yesterday: 50 °F (at 1:20 PM)
Minimum temperature yesterday: 39 °F (at 5:50 AM)
Average temperature yesterday: 45 °F

Past Weeks' High & Low Weather Summary

 TemperatureHumidityPressure
High52 °F (Feb 14, 1:50 PM)100% (Feb 12, 5:50 PM)30.74 "Hg (Feb 12, 5:50 PM)
Low27 °F (Feb 18, 4:50 AM)57% (Feb 27, 4:20 PM)29.33 "Hg (Feb 23, 2:20 PM)
Average40 °F96%29.95 "Hg
* Reported Feb 12 5:20 PM — Feb 27 5:50 PM, Bocholt, Weather by CustomWeather, © 2015

Note: Actual official high and low records may vary slightly from our data, if they occured in-between our weather recording intervals... More about our weather records

Advertising

Bocholt weather history for previous 24 hours

 ConditionsComfort  
Time TempWeatherWind HumidityBarometerVisibility
5:50 PM
Fri, Feb 27
45 °FPassing clouds.6 mph71%30.07 "HgN/A
5:20 PM46 °FPassing clouds.5 mph62%30.07 "HgN/A
4:50 PM46 °FSunny.5 mph57%30.07 "Hg10 mi
4:20 PM46 °FSunny.6 mph57%30.07 "Hg10 mi
3:50 PM45 °FSunny.5 mph71%30.07 "Hg10 mi
3:20 PM45 °FSunny.5 mph66%30.04 "Hg10 mi
2:50 PM46 °FSunny.8 mph62%30.04 "Hg10 mi
2:20 PM48 °FScattered clouds.9 mph66%30.04 "HgN/A
1:50 PM46 °FScattered clouds.8 mph66%30.04 "HgN/A
1:20 PM45 °FScattered clouds.9 mph76%30.01 "HgN/A
12:50 PM45 °FPartly sunny.8 mph76%30.01 "HgN/A
12:20 PM45 °FPartly sunny.8 mph81%30.01 "HgN/A
11:50 AM45 °FPartly sunny.7 mph87%30.01 "HgN/A
11:20 AM43 °FPartly sunny.7 mph93%29.98 "HgN/A
10:50 AM41 °FPassing clouds.7 mph100%29.98 "HgN/A
10:20 AM43 °FPassing clouds.8 mph100%29.98 "HgN/A
9:50 AM41 °FPassing clouds.6 mph100%29.95 "HgN/A
9:20 AM41 °FScattered clouds.7 mph100%29.95 "HgN/A
8:50 AM41 °FScattered clouds.7 mph100%29.92 "HgN/A
8:20 AM41 °FPartly cloudy.7 mph100%29.92 "HgN/A
7:50 AM41 °FPassing clouds.9 mph100%29.92 "HgN/A
7:20 AM41 °FPassing clouds.9 mph100%29.89 "HgN/A
6:50 AM41 °FPassing clouds.8 mph100%29.89 "HgN/A
6:20 AM41 °FLight rain. Passing clouds.8 mph100%29.86 "HgN/A
5:50 AM41 °FLight rain. Passing clouds.5 mph100%29.86 "HgN/A
5:20 AM41 °FLight rain. Passing clouds.3 mph100%29.86 "HgN/A
11:50 PM
Thu, Feb 26
45 °FLight rain. Fog.8 mph100%29.77 "Hg3 mi
11:20 PM45 °FLight rain. Passing clouds.8 mph100%29.77 "Hg4 mi
10:50 PM45 °FLight rain. Fog.9 mph100%29.77 "Hg3 mi
10:20 PM45 °FLight rain. Fog.9 mph100%29.80 "Hg3 mi
9:50 PM45 °FPassing clouds.9 mph100%29.80 "Hg4 mi
9:20 PM45 °FPassing clouds.10 mph100%29.80 "Hg5 mi
8:50 PM45 °FFog.10 mph100%29.80 "Hg3 mi
8:20 PM45 °FPartly cloudy.9 mph100%29.83 "Hg4 mi
7:50 PM45 °FPartly cloudy.12 mph100%29.83 "Hg5 mi
7:20 PM45 °FFog.12 mph100%29.83 "Hg2 mi
Weather by CustomWeather, © 2015

See weather overviewHow to use our weather pages